Location: Göttingen
(51.5413°N, 9.9158°E)
Time: 02:46:16
(UTC+02:00)

Envisat - Pass Details

Date: 28 January 2022
Orbit: 764 x 765 km, 98.2° (Epoch: 22 May)

Event Time Altitude Azimuth Distance (km) Brightness Sun altitude
Rises 07:20:14 0° 3° (N) 3,244 6.1 -7.1°
Reaches altitude 10° 07:23:30 10° 341° (NNW) 2,313 5.1 -6.7°
Maximum altitude 07:26:15 15° 308° (NW) 1,988 4.6 -6.3°
Drops below altitude 10° 07:29:01 10° 275° (W) 2,306 4.9 -5.9°
Sets 07:32:16 0° 253° (WSW) 3,228 5.8 -5.4°
